Theta_e
349 347 347 348 350 350 347 344 344 344 342 336 341 347 342 346 347 346 349 354 351 352 354 348 349 350 349 350 353 347 350 345 346 349 344 347 348 347 347 345 345 344 338
350 348 348 349 350 350 350 348 344 344 343 335 337 344 350 350 348 348 350 350 349 349 350 352 347 343 342 344 350 352 351 347 349 348 347 348 347 345 348 346 345 343 343
350 349 349 350 351 351 351 351 343 343 341 336 341 349 351 351 350 347 348 347 344 345 343 344 344 341 346 342 349 352 348 349 348 346 348 348 347 347 348 345 343 342 341
350 350 349 349 351 351 351 351 345 342 340 338 343 349 350 349 351 349 345 346 346 346 343 340 345 343 335 340 350 353 352 350 349 351 347 346 348 350 348 345 342 339 339
349 350 350 350 350 351 351 351 348 339 336 337 342 349 349 349 349 349 348 350 346 345 345 347 348 348 347 344 349 352 354 348 352 353 347 348 350 349 348 345 338 338 338
349 350 350 349 350 351 351 350 351 345 333 334 343 347 349 347 350 350 351 349 348 348 350 350 349 349 350 349 349 352 349 353 353 352 348 352 349 347 342 336 336 337 336
348 350 350 349 350 351 351 350 351 348 341 332 338 349 350 345 350 350 348 348 350 349 349 348 349 349 350 349 347 351 353 356 354 351 350 347 343 339 338 336 333 337 336
347 349 350 350 350 350 351 351 351 351 346 331 332 342 350 349 346 349 351 350 347 350 352 350 351 350 349 344 351 354 355 355 352 353 347 341 338 341 337 329 327 332 333
347 349 349 350 350 349 351 351 350 350 350 338 329 332 335 344 345 342 345 346 346 349 352 350 348 348 345 347 353 357 355 354 355 348 344 340 340 338 336 333 328 322 325
342 347 349 349 349 349 350 351 351 350 350 349 335 332 334 335 336 338 341 348 354 356 352 346 345 343 344 347 356 357 354 355 352 347 338 339 338 338 332 317 312 319 321
347 347 350 348 348 349 349 350 350 350 349 350 348 339 338 339 340 342 344 352 351 350 353 349 344 344 346 349 358 358 353 357 348 346 333 328 325 319 315 312 313 317 320
348 347 348 349 349 349 349 349 350 350 350 350 350 349 341 340 342 343 344 345 347 344 344 345 345 349 352 355 357 358 355 353 349 344 331 325 323 316 316 314 317 319 319
344 346 348 348 348 348 348 348 349 350 350 351 350 351 350 345 343 343 344 345 345 343 344 346 347 352 355 357 360 359 358 351 349 340 328 319 313 310 311 314 320 323 320
359 351 348 348 348 348 348 348 349 350 349 351 352 351 350 349 343 343 345 347 347 344 345 348 351 354 353 358 361 359 358 351 347 335 322 314 309 308 307 307 311 312 316
359 358 359 349 348 348 348 348 349 349 349 349 350 351 350 350 347 347 347 349 346 345 345 349 352 352 358 359 360 361 354 351 343 329 320 312 308 307 306 304 304 303 304
360 359 364 352 350 349 348 348 348 347 348 348 348 348 350 350 350 348 347 349 345 345 344 348 349 355 360 360 362 360 355 349 340 326 318 310 308 307 306 304 305 306 309
359 357 361 363 357 351 351 349 348 347 347 348 348 348 348 349 350 350 349 348 344 344 340 345 350 359 361 362 360 357 354 348 336 323 316 309 309 309 308 307 308 310 311
360 359 357 358 362 362 354 351 349 349 349 349 349 349 349 348 349 351 354 348 344 344 343 346 355 359 360 362 360 356 353 346 332 321 316 311 311 309 309 309 310 312 312
354 351 356 358 358 361 361 358 355 353 352 351 351 350 350 350 350 346 352 350 343 344 345 350 352 356 360 361 359 355 351 346 332 321 318 311 309 310 309 307 310 312 313
344 352 361 362 360 360 362 357 358 357 358 356 355 354 353 353 353 350 345 343 343 344 347 351 354 355 360 361 357 355 351 347 333 323 317 310 308 309 310 309 312 313 315
347 355 361 361 360 359 361 361 356 356 358 360 359 360 359 357 356 355 350 343 343 346 350 355 355 358 361 361 357 356 350 346 336 325 317 310 308 308 307 309 313 313 314
348 349 354 358 359 357 361 365 359 357 358 359 358 359 362 361 360 358 356 353 349 347 352 354 357 360 363 361 359 355 350 346 339 327 318 311 308 307 306 312 314 314 313
345 347 349 353 355 356 359 367 362 360 360 361 360 359 361 361 361 361 359 357 354 351 353 354 361 359 364 362 359 354 349 345 337 327 318 311 308 307 309 313 314 314 314
347 348 345 348 345 352 358 361 363 363 363 362 360 360 361 361 362 362 362 361 356 353 353 357 361 362 360 360 358 348 345 344 341 331 321 312 308 307 311 314 315 314 314
343 345 346 348 347 348 355 359 361 362 362 361 361 361 362 362 361 362 363 362 355 352 348 352 354 352 347 357 358 354 349 346 343 336 328 321 309 307 311 313 312 313 313
336 340 342 346 348 345 350 354 360 362 362 362 362 361 362 362 361 363 364 362 357 353 353 352 352 359 355 352 357 357 352 348 344 340 333 324 313 309 311 315 311 313 313
Wind_Speed
32 30 26 24 25 22 22 21 20 17 14 14 18 16 12 13 9 7 7 6 7 7 7 9 9 12 15 20 24 25 22 25 31 30 32 17 14 12 23 14 14 12 7
35 33 30 29 30 25 23 22 24 21 17 14 16 15 9 5 5 4 10 12 12 9 9 11 14 14 16 16 20 25 27 32 29 28 24 17 11 27 9 15 16 12 9
40 38 35 33 31 29 26 21 26 25 19 17 17 15 11 6 7 9 10 9 8 10 9 9 14 16 17 18 21 26 28 29 31 27 24 18 14 28 6 13 14 13 9
36 40 37 36 33 31 26 22 24 27 22 20 19 16 11 10 9 6 8 8 7 10 13 14 17 20 19 18 19 23 25 26 27 26 24 21 19 15 8 12 17 14 8
39 44 42 39 35 33 29 24 22 27 25 23 20 18 12 13 9 5 8 11 6 12 10 12 13 15 17 18 18 21 24 25 25 23 24 21 15 10 7 11 15 12 12
41 44 43 40 37 34 30 26 23 26 27 26 24 21 17 16 11 9 5 5 7 8 14 17 12 13 16 17 18 20 20 20 22 23 20 16 15 12 12 14 13 11 10
40 42 46 44 41 35 33 31 26 26 28 27 29 24 20 19 17 14 11 10 9 7 11 9 7 12 15 21 18 17 18 17 21 17 16 12 13 14 15 13 13 8 3
37 46 46 45 42 40 36 34 30 25 28 29 30 29 25 21 20 19 14 12 9 7 7 5 5 9 18 16 17 16 15 17 17 11 12 13 14 13 11 10 10 8 7
19 39 49 47 44 41 41 38 35 28 26 28 30 29 30 25 21 18 17 14 11 11 12 13 14 18 20 18 13 13 16 15 12 14 8 8 8 7 7 10 12 7 8
34 41 48 49 45 41 41 40 38 32 26 26 28 28 28 26 23 21 18 14 8 8 11 13 14 15 13 11 11 12 14 11 13 11 7 4 5 6 9 10 8 7 10
46 45 49 51 45 42 40 40 40 37 31 28 24 28 27 25 22 20 18 16 15 14 15 16 12 11 11 9 8 12 13 10 11 9 7 8 7 7 9 12 12 9 10
39 47 45 50 45 43 40 41 41 40 35 31 28 24 26 25 24 21 19 18 18 15 13 12 9 9 9 5 8 11 12 6 6 9 7 7 7 7 8 8 9 11 10
19 29 34 47 47 44 40 39 42 42 38 34 30 27 26 27 27 23 20 18 16 14 11 11 10 10 10 5 8 10 9 4 5 6 6 7 7 8 8 9 8 5 4
21 27 39 45 49 45 40 41 42 41 37 35 33 30 27 24 26 23 20 18 15 14 12 12 10 9 7 7 7 9 9 3 4 4 5 7 8 10 10 9 6 4 4
24 20 12 45 43 46 44 42 42 40 37 35 33 31 27 23 23 24 22 19 17 15 13 13 10 5 2 7 10 9 10 3 2 2 4 6 8 9 10 11 13 12 12
23 22 22 41 49 49 46 44 42 39 36 35 31 28 26 25 24 24 23 21 17 14 11 11 9 5 7 7 9 9 6 1 2 2 4 5 7 8 10 13 16 18 22
24 19 20 17 24 44 44 43 40 37 36 32 29 25 24 23 22 23 22 20 16 13 11 10 7 11 10 11 10 7 4 2 2 3 5 4 6 8 9 12 15 22 25
15 13 10 16 20 13 30 34 35 35 34 32 28 25 24 22 20 21 22 19 16 14 13 12 12 12 12 12 10 4 5 4 5 5 5 3 4 7 9 11 14 18 20
11 14 10 5 6 10 11 19 26 31 32 32 31 29 25 23 21 21 21 19 18 16 15 14 15 14 14 12 11 6 7 7 7 6 4 2 2 4 8 11 14 17 17
8 8 12 6 8 6 4 17 18 23 25 28 29 28 27 25 23 22 21 20 19 17 17 16 16 14 14 13 12 9 9 9 9 8 7 6 4 4 6 11 13 16 12
6 6 8 5 2 2 4 13 18 23 23 24 24 25 26 26 25 23 24 22 21 18 19 19 17 16 16 14 13 12 8 8 8 8 9 7 6 4 6 9 11 13 10
9 5 7 8 1 1 3 6 16 18 22 25 26 27 26 26 26 26 25 24 24 22 22 21 20 19 17 15 15 13 8 6 6 6 9 8 7 6 7 11 11 10 8
15 9 5 8 5 1 2 6 15 17 20 21 22 24 26 26 28 28 28 26 25 25 26 26 25 22 20 19 19 17 10 6 6 3 7 8 8 9 10 12 10 7 6
15 14 9 8 7 5 5 2 8 11 15 19 21 22 26 27 26 26 27 27 27 29 31 30 27 25 22 23 24 22 16 12 9 7 7 7 8 11 12 10 7 5 4
12 13 13 7 7 8 7 6 8 13 17 18 20 22 24 25 25 28 27 26 28 31 33 30 24 23 23 25 24 25 20 16 12 10 10 10 11 13 12 9 6 5 5
16 11 10 10 11 9 14 10 6 13 17 18 18 22 25 25 27 32 30 28 28 28 30 23 16 9 8 13 23 26 20 17 16 15 14 11 12 13 12 8 7 7 5
Wind_Direction
177 177 182 189 197 200 204 210 209 212 209 184 174 171 152 186 205 185 258 250 323 295 308 324 320 335 328 338 352 347 355 3 2 356 355 18 7 3 342 355 358 4 31
178 178 183 190 200 203 207 216 210 216 213 195 168 154 162 204 205 212 249 261 304 285 297 323 325 321 328 342 350 354 355 355 357 354 352 352 6 343 360 10 19 29 40
175 179 183 191 200 205 209 217 210 218 214 202 171 172 204 222 222 226 245 284 322 347 348 316 336 347 348 348 345 344 349 347 346 352 359 352 332 336 327 22 13 12 360
184 181 187 192 200 208 215 223 219 218 216 204 186 194 215 212 171 224 265 277 321 333 347 6 7 359 347 346 337 334 334 340 344 347 350 342 333 328 324 349 15 6 32
190 187 187 193 201 209 213 221 224 221 217 207 195 195 212 196 179 227 266 269 281 320 348 335 336 347 344 333 330 327 340 341 337 348 342 346 360 359 4 1 30 41 72
192 192 191 192 198 206 213 219 226 222 218 208 205 198 203 195 197 213 244 235 293 303 311 307 304 326 335 334 329 332 341 331 338 343 346 346 0 17 34 34 47 48 102
187 186 190 193 196 202 211 218 224 223 221 211 206 205 207 200 205 212 218 230 250 280 316 336 307 325 324 329 328 342 340 336 335 343 343 7 42 53 50 40 35 46 124
187 192 193 196 196 201 211 215 220 224 221 217 210 208 210 209 210 217 216 222 233 255 347 339 306 308 313 322 337 339 329 332 341 346 1 52 51 39 43 35 28 65 108
191 201 195 200 198 199 205 214 220 223 224 220 217 214 219 218 218 218 229 239 254 250 270 282 286 296 310 320 338 334 331 346 353 1 22 63 52 38 10 350 348 16 124
213 232 195 201 203 201 204 210 221 224 226 224 222 220 221 225 227 228 228 225 224 235 239 263 288 298 311 336 346 330 348 352 10 12 46 59 26 1 346 360 13 52 70
195 195 195 199 202 202 202 205 216 221 224 225 226 228 227 226 224 227 228 228 235 243 258 278 294 309 327 350 341 338 345 2 2 17 24 41 29 20 23 51 68 66 47
180 186 190 192 197 201 201 206 212 219 222 226 228 229 232 232 232 230 234 238 247 261 267 275 298 313 330 1 331 327 343 5 6 15 22 30 23 31 27 40 52 63 57
256 208 193 189 194 201 201 205 209 218 221 223 227 230 232 235 237 237 238 242 247 259 265 278 292 309 323 300 310 323 338 42 10 19 26 46 48 60 62 59 62 70 89
61 193 189 194 195 201 201 203 208 213 220 224 225 228 232 235 237 236 240 244 249 260 269 272 273 282 310 270 296 307 338 350 21 27 40 54 56 62 50 54 52 25 323
48 76 134 201 191 194 199 203 206 208 216 221 227 230 234 237 239 235 238 244 251 262 269 259 262 269 172 279 285 287 331 10 58 60 60 62 60 63 68 65 62 59 62
36 41 58 190 194 199 200 202 205 205 213 219 227 233 230 234 238 234 235 239 251 258 245 246 242 224 244 266 247 294 310 326 122 91 103 85 80 83 72 68 64 65 58
24 41 38 94 188 199 200 201 203 205 210 216 223 230 229 230 235 232 233 236 241 237 234 232 215 217 241 257 272 309 288 233 162 131 120 111 95 85 75 64 59 62 59
26 46 42 60 94 151 203 206 205 204 209 213 220 226 228 229 230 227 229 230 231 232 227 232 220 227 242 253 268 243 263 205 169 149 123 89 106 79 69 65 61 59 55
14 15 38 51 84 95 159 192 202 206 210 214 219 224 228 229 227 224 221 223 227 224 233 222 225 229 237 249 258 231 222 203 175 164 139 144 108 77 73 67 77 74 64
356 15 49 73 181 162 152 204 200 207 211 216 219 223 226 230 229 225 221 222 225 229 225 221 228 233 236 243 253 226 227 212 190 172 166 162 156 135 105 95 83 79 72
28 43 56 63 254 238 209 210 219 222 217 217 217 222 225 231 233 230 224 222 220 221 221 221 225 227 233 241 243 227 232 228 207 189 175 160 156 143 100 112 96 89 94
19 47 32 62 107 28 183 186 219 223 218 212 220 224 227 228 230 229 226 224 223 220 219 217 218 221 228 231 230 225 228 230 229 209 181 167 152 147 124 123 108 107 91
6 12 22 8 60 126 357 151 191 211 219 215 219 224 225 223 225 224 225 221 216 217 214 214 218 219 218 219 216 226 217 203 206 180 177 175 159 151 140 133 124 127 110
360 351 345 344 9 330 241 241 198 200 208 222 221 221 219 219 222 221 224 222 215 210 215 217 216 222 219 216 213 209 209 213 207 185 174 188 178 161 157 152 134 131 99
12 353 355 338 325 304 270 262 237 216 215 208 225 221 221 218 216 216 217 220 219 216 215 223 222 223 225 218 218 212 212 218 219 215 208 209 198 181 173 168 157 150 138
31 13 339 336 357 297 290 297 242 225 223 215 213 220 220 221 215 213 214 214 215 214 223 229 229 252 252 233 216 212 216 218 219 221 226 222 210 198 196 187 161 168 149